FENGYUN 1C DEB

Satellite information

Favourite Embed

Satellite Type and Status

DEBRISIN ORBIT

Key statistics

Satellite FENGYUN 1C DEB at a glance.

Uptime

9615

Days in orbit

Revolutions

≈ 14.7

Per day

Orbit

SSO

Sun Synchronous Orbit

Inclination

98.7

Latest

Satellite identification and parameters

Extended collection of information and parameters for FENGYUN 1C DEB.

Object identification

Identified? True

Debris? True

Object name: FENGYUN 1C DEB

International designator: 1999-025ALK

Object number (NORAD): 30569

Object ID (CCSDS): 30569

Country: PEOPLES REPUBLIC OF CHINA (PRC)

Current information (Y/N): Y

RCS size: SMALL

Orbital parameters

Period: 98.147 minutes

Inclination: 98.7377 deg

SMA: 7048.206 km

Apoapsis: 675.493 km

Periapsis: 664.65 km

RAAN: 18.8374 deg

Eccentricy: 0.00076918

Argument of periapsis: 32.2689 deg

Mean anomaly: 327.8982 deg

Mean motion: 14.67184903 rev/day

Mean motion (dot): 0.00025892 rev/day2

B* drag term: 0.0045923914 1/REarth

Two-line elements (TLE)

Creation date: Sept. 4, 2025, 10:13 a.m.

Reference frame: TEME

Reference center: EARTH

Epoch: Sept. 3, 2025, 10:42 p.m. UTC

TLE line 0: 0 FENGYUN 1C DEB

TLE line 1: 1 30569U 99025ALK 25246.94643185 .00025892 00000-0 45924-2 0 9999

TLE line 2: 2 30569 98.7377 18.8374 0007692 32.2689 327.8982 14.67184903967409

Live tracking on map

Real-time ground track for satellite FENGYUN 1C DEB.

In-orbit conjunctions

A list of the most updated potential collisions computed for object FENGYUN 1C DEB.

Target Orbit TCA Probability of collision Miss distance Type
ARIANE 1 DEB * SSO 2025-03-28 14:53:23 0.0002793175 109.0 (m) DEBRIS
IRIDIUM 33 DEB LEO 2024-09-28 00:23:51 0.000889264 325.0 (m) DEBRIS

Associated space launch

Chinese polar orbiting meteorological satellite

FENGYUN 1C DEB was lifted into orbit during the mission ‘Long March 4B | Feng Yun 1C’, on board a Long March 4B space rocket.

The launch took place on May 10, 1999, 1:33 a.m. from Launch Complex 7.

For more information about the launch, click the button.

Launch to space Long March 4B | Feng Yun 1C
Long March 4B | Feng Yun 1C

Agency: N/A

Status: Launch Successful

Launch date: May 10, 1999, 1:33 a.m. UTC

Rocket: Long March 4B

Launch pad: Launch Complex 7

Location: Taiyuan Satellite Launch Center, People's Republic of China

...

Latest news about this satellite

There are no fresh news available about this satellite. Check back as we update our databases every day.


Newsletter sign-up

Weekly statistics, charts and insights to help you stay on top of the space industry.